Hourly Data Report for June 22, 2017

FISHER BRANCH (AUT)
MANITOBA

51°05'00.100" N
97°33'16.200" W
253.00 m
50309J6
71442
WSZ

Download Data

Hourly Data (June 2017)
Hourly Data Report for June 22, 2017
TIME
LST
Temp Definition
°C
Dew Point Definition
°C
Rel Hum Definition
%
Precip. Amount Definition
mm

Wind Dir Definition
10's deg

Wind Spd Definition
km/h
Visibility Definition
km
Stn Press Definition
kPa
Hmdx Definition


Wind Chill Definition


Weather Definition


00:00 10.6 8.0 84 0.0 24 5   97.17     LegendNANA
01:00 10.0 8.1 88 0.0 22 5   97.15     LegendNANA
02:00 9.2 7.3 88 0.0 19 8   97.12     LegendNANA
03:00 8.8 6.9 88 0.0 18 9   97.06     LegendNANA
04:00 8.9 6.8 87 0.0 19 9   97.05     LegendNANA
05:00 10.9 8.6 86 0.0 20 12   97.04     LegendNANA
06:00 13.8 7.9 68 0.0 23 14   97.04     LegendNANA
07:00 15.6 8.0 60 0.0 22 15   97.00     LegendNANA
08:00 17.1 6.2 49 0.0 24 26   96.95     LegendNANA
09:00 18.0 5.6 44 0.0 25 31   96.89     LegendNANA
10:00 14.9 6.8 58 0.0 26 25   96.91     LegendNANA
11:00 14.4 7.2 62 0.0 25 35   96.93     LegendNANA
12:00 14.1 8.2 67 0.0 23 26   96.92     LegendNANA
13:00 14.6 8.2 66 0.0 24 18   96.91     LegendNANA
14:00 16.1 7.7 58 0.0 24 27   96.88     LegendNANA
15:00 16.2 8.6 61 0.0 24 23   96.86     LegendNANA
16:00 14.7 9.7 72 0.0 27 21   96.89     LegendNANA
17:00 12.9 10.8 87 1.8 28 10   96.88     LegendNANA
18:00 14.3 11.6 84 0.8 26 10   96.89     LegendNANA
19:00 14.7 11.5 81 0.0 29 15   96.94     LegendNANA
20:00 14.3 11.3 82 0.0 30 9   97.02     LegendNANA
21:00 12.2 10.2 88 0.0 33 9   97.12     LegendNANA
22:00 10.6 9.2 92 0.0 30 8   97.21     LegendNANA
23:00 11.0 9.6 91 0.0 30 11   97.27     LegendNANA

Notes on Data Quality.

Legend

  • E = Estimated
  • M = Missing
  • NA = Not Available*
  • [empty] = Indicates an unobserved value
Date modified: